Notices

What's New in latest Release from April 7th, 2021:

- Updated Glossary, including Speed of Maximum Gust, and Total Hourly Precipitation

- Updated national and regional climate services offices contacts and prices information

- Addition of station inventory lists for 1981-2010, 1971-2000, and 1961-1990 Normals.

If you haven't already, please take our survey and provide feedback about our website: https://eccc.sondage-survey.ca/f/LanguageSelection.aspx?s=442ca660-fcf1-47c0-95a9-59707d6fd709

Hourly Data Report for October 23, 2019

PINAWA
MANITOBA
Current Station Operator: ECCC - MSC

50°10'38.020" N
96°03'53.000" W
268.00 m
503B1ER
71448
WEA

Download Data

Hourly Data (October 2019)
Hourly Data Report for October 23, 2019
TIME
LST
Temp Definition
°C
Dew Point Definition
°C
Rel Hum Definition
%
Precip. Amount Definition
mm

Wind Dir Definition
10's deg

Wind Spd Definition
km/h
Visibility Definition
km
Stn Press Definition
kPa
Hmdx Definition


Wind Chill Definition


Weather Definition


00:00 0.9 LegendMM LegendMM 0.0 34 13   97.33     LegendNANA
01:00 1.2 LegendMM LegendMM 0.0 34 14   97.37     LegendNANA
02:00 1.1 LegendMM LegendMM 0.0 35 16   97.42     LegendNANA
03:00 0.4 LegendMM LegendMM 0.0 34 12   97.48     LegendNANA
04:00 0.5 LegendMM LegendMM 0.0 33 11   97.55     LegendNANA
05:00 0.1 LegendMM LegendMM 0.0 34 8   97.62     LegendNANA
06:00 0.0 LegendMM LegendMM 0.2 34 13   97.69   -4 LegendNANA
07:00 0.1 LegendMM LegendMM 0.0 33 10   97.72     LegendNANA
08:00 0.2 LegendMM LegendMM 0.0 34 10   97.80     LegendNANA
09:00 0.5 LegendMM LegendMM 0.0 31 14   97.89     LegendNANA
10:00 1.2 LegendMM LegendMM 0.0 32 16   97.96     LegendNANA
11:00 1.5 LegendMM LegendMM 0.0 32 17   98.05     LegendNANA
12:00 2.5 LegendMM LegendMM 0.0 32 19   98.11     LegendNANA
13:00 2.5 LegendMM LegendMM 0.0 32 22   98.14     LegendNANA
14:00 1.7 LegendMM LegendMM 0.2 32 20   98.22     LegendNANA
15:00 2.4 LegendMM LegendMM 0.2 32 25   98.30     LegendNANA
16:00 1.8 LegendMM LegendMM 0.2 32 20   98.39     LegendNANA
17:00 1.4 LegendMM LegendMM 0.0 31 22   98.48     LegendNANA
18:00 1.2 LegendMM LegendMM 0.0 32 20   98.56     LegendNANA
19:00 1.3 LegendMM LegendMM 0.0 31 22   98.66     LegendNANA
20:00 1.2 LegendMM LegendMM 0.0 31 21   98.71     LegendNANA
21:00 1.2 LegendMM LegendMM 0.0 31 17   98.73     LegendNANA
22:00 0.9 LegendMM LegendMM 0.0 1 8   98.79     LegendNANA
23:00 0.2 LegendMM LegendMM 0.0 31 11   98.84     LegendNANA

Notes on Data Quality.

Legend

  • E = Estimated
  • M = Missing
  • NA = Not Available*
  • [empty] = Indicates an unobserved value
Date modified: